Location: Ladd Observatory
(41.8387°N, 71.3996°W)
Time: 05:43:12
(UTC-04:00)

Daily predictions for brighter satellites

Satellite Brightness Start Highest point End
(mag) Time Altitude Azimuth Time Altitude Azimuth Time Altitude Azimuth
Cosmos 1544 Rocket 4.4 00:06:24 46° N 00:06:24 46° N 00:09:29 10° N
Cosmos 1315 Rocket 4.3 00:07:03 34° N 00:07:03 34° N 00:09:23 10° N
Cosmos 2082 Rocket 4.2 00:05:06 10° WNW 00:08:27 16° W 00:08:58 16° WSW
Meteor 2-4 Rocket 3.7 00:04:40 10° NNW 00:09:56 71° W 00:09:56 71° W
Lacrosse 5 rocket 3.4 00:13:03 21° NNE 00:13:03 21° NNE 00:14:24 10° NE
Cosmos 1447 Rocket 4.5 00:08:26 10° N 00:14:35 66° E 00:14:54 65° E
Meteor 2-15 Rocket 4.3 00:10:04 10° NNW 00:16:12 76° W 00:16:28 74° WSW
Cosmos 2263 4.4 00:19:34 62° ENE 00:19:34 62° ENE 00:24:29 10° NNE
Cosmos 2100 Rocket 4.3 00:26:30 52° E 00:26:40 52° E 00:32:49 10° NNE
Cosmos 1346 Rocket 4.5 00:28:10 10° N 00:30:21 31° N 00:30:21 31° N
Cosmos 2061 Rocket 4.2 00:38:48 59° ESE 00:39:01 59° E 00:45:20 10° NNE
H-2A R/B 3.4 00:35:02 10° N 00:38:33 50° NNW 00:38:33 50° NNW
Cosmos 1833 4.4 00:34:56 10° NNW 00:40:31 60° ENE 00:40:36 60° ENE
Cosmos 1459 Rocket 3.9 00:45:58 68° E 00:45:59 68° E 00:52:01 10° NNE
Cosmos 2016 Rocket 4.4 00:46:43 48° E 00:46:47 48° E 00:52:36 10° NNE
ISS -0.1 00:46:00 10° NW 00:47:56 15° N 00:49:52 10° NE
Cosmos 1802 Rocket 4.0 00:51:42 64° E 00:51:49 64° E 00:58:02 10° NNE
Cosmos 1975 4.4 00:57:03 35° N 00:57:03 35° N 00:59:28 10° N
Cosmos 2369 Rocket 3.0 00:57:32 40° W 00:58:19 42° WNW 01:03:39 10° NNE
MOS 1-B Rocket 4.1 00:58:33 65° WSW 00:58:38 65° W 01:05:17 10° NNW
CZ-2C R/B 3.3 01:04:53 63° NNE 01:04:53 63° NNE 01:09:14 10° N
SeaSat 1 3.8 01:04:25 29° E 01:05:31 32° NE 01:09:53 10° N
Cosmos 2173 Rocket 3.8 01:05:19 83° SSW 01:05:34 87° W 01:11:58 10° N
Cosmos 2219 3.7 01:02:30 10° NNW 01:08:00 52° ENE 01:08:34 50° E
Cosmos 1066 Rocket 4.2 01:05:08 10° N 01:10:04 74° NNE 01:10:04 74° NNE
CZ-2C R/B 2.7 01:05:49 10° N 01:10:38 72° NNW 01:10:38 72° NNW
Lacrosse 5 3.3 01:09:48 27° WNW 01:11:31 34° NNW 01:16:10 10° NNE
NOSS 3-3 (A) 4.3 01:20:54 53° ESE 01:20:54 53° ESE 01:27:07 10° NE
NOSS 3-3 (C) 4.3 01:20:59 53° ESE 01:20:59 53° ESE 01:27:12 10° NE
Cosmos 1725 Rocket 4.1 01:21:54 61° ESE 01:22:17 62° E 01:28:22 10° NNE
Cosmos 968 Rocket 3.7 01:18:41 10° NNW 01:23:08 64° NW 01:23:08 64° NW
Cosmos 44 Rocket 3.7 01:25:28 10° NNW 01:29:44 61° NNW 01:29:44 61° NNW
Cosmos 1656 Rocket 3.7 01:31:13 74° E 01:31:13 74° E 01:36:36 10° NNE
Tsikada Rocket 4.0 01:26:32 10° N 01:32:50 73° E 01:33:36 65° SE
Cosmos 1943 Rocket 2.7 01:37:33 46° WNW 01:37:57 47° WNW 01:43:21 10° NNE
Cosmos 2228 4.4 01:38:53 33° ENE 01:38:53 33° ENE 01:42:00 10° NNE
Cosmos 1818 4.3 01:38:10 41° WNW 01:38:51 43° NW 01:44:06 10° NNE
ATLAS 2AS CENTAUR R/B 2.9 01:33:46 10° NW 01:41:47 67° WSW 01:42:49 61° SSW
Cosmos 2098 Rocket 4.1 01:41:51 68° S 01:42:53 86° E 01:50:28 10° N
Cosmos 1606 Rocket 4.3 01:50:11 48° NNW 01:50:11 48° NNW 01:53:24 10° N
Lacrosse 5 rocket 4.1 01:49:03 10° NW 01:50:43 12° NNW 01:52:21 10° N
PSLV R/B 4.0 01:56:15 10° NNE 02:00:07 63° NE 02:00:07 63° NE
Cosmos 2208 Rocket 3.9 02:02:20 80° E 02:02:20 80° E 02:07:29 10° NNE
Cosmos 1777 Rocket 4.3 01:58:14 10° NNW 02:02:36 54° WNW 02:02:36 54° WNW
Cosmos 2058 Rocket 3.5 02:08:25 56° NNW 02:08:25 56° NNW 02:12:06 10° N
SL-08 R/B 4.1 02:09:23 40° ESE 02:10:16 44° ENE 02:14:41 10° N
Cosmos 44 3.3 02:05:29 10° NNW 02:10:31 82° N 02:10:31 82° N
Cosmos 2346 Rocket 4.5 02:07:22 10° N 02:13:41 79° E 02:15:11 54° SSE
Cosmos 972 Rocket 4.2 02:10:40 10° N 02:15:34 62° ENE 02:16:31 52° ESE
ERS-2 4.2 02:13:48 10° NE 02:16:22 21° E 02:16:22 21° E
ISS -0.7 02:22:38 10° NW 02:25:15 22° NNE 02:27:52 10° ENE
Cosmos 1464 Rocket 4.4 02:23:38 39° SE 02:25:40 55° E 02:31:51 10° NNE
BREEZE-M DEB (TANK) 3.1 02:15:26 10° WNW 02:27:06 88° SSW 02:28:18 48° ESE
Cosmos 2233 Rocket 3.9 02:27:50 57° SW 02:28:50 65° W 02:34:57 10° N
BREEZE-M DEB (TANK) 3.7 02:30:37 28° NE 02:30:37 28° NE 02:32:13 10° ENE
Cosmos 1707 4.1 02:27:49 10° NNE 02:31:24 33° ENE 02:32:03 31° E
CZ-2D R/B 4.1 02:32:02 10° NE 02:36:12 22° E 02:39:14 14° SE
NOSS 2-1 (D) 4.2 02:36:41 42° E 02:36:41 42° E 02:40:23 10° NE
IRS-1C 4.5 02:32:19 10° NNE 02:37:35 56° E 02:38:53 45° SSE
NOSS 2-1 (C) 4.1 02:38:01 43° ESE 02:38:01 43° ESE 02:41:46 10° NE
Cosmos 468 Rocket 4.4 02:39:04 45° SE 02:40:03 52° ESE 02:45:03 10° NNE
SeaSat 1 3.5 02:44:12 31° W 02:44:12 31° W 02:47:30 10° NW
ATLAS CENTAUR R/B 2.5 02:43:07 41° SE 02:43:45 43° ESE 02:48:30 10° NE
Cosmos 1697 Rocket 4.0 02:42:23 24° SE 02:44:29 30° ESE 02:49:22 10° NE
Cosmos 2082 3.7 02:39:42 10° NNW 02:45:23 82° ENE 02:47:55 34° SSE
Cosmos 2150 Rocket 4.0 02:45:50 10° NNW 02:51:05 76° ENE 02:53:18 35° SSE
Cosmos 1980 Rocket 4.1 02:49:34 14° SE 02:52:37 21° E 02:56:46 10° NE
NOSS 2-1 (E) 3.6 02:52:39 60° SE 02:52:41 60° ESE 02:57:05 10° NE
IRS-P3 4.2 02:48:27 10° N 02:53:44 62° WNW 02:54:49 50° WSW
Cosmos 1513 Rocket 4.5 02:53:19 40° S 02:55:39 77° E 03:01:43 10° N
Meteor 2-5 Rocket 3.8 02:50:18 10° N 02:56:13 88° E 02:58:45 37° S
Cosmos 2227 Rocket 2.1 02:50:47 10° NNW 02:56:30 78° WSW 02:58:36 40° S
Cosmos 972 4.3 02:56:19 10° NNW 03:01:13 83° ENE 03:03:16 36° SSE
Cosmos 1898 Rocket 3.4 02:56:46 10° NNW 03:02:09 85° WSW 03:04:20 37° SSE
GEOS 3 Rocket 4.5 02:58:32 10° ESE 03:03:33 50° NE 03:08:33 10° NNW
NOSS 3-4 (A) 4.0 02:57:44 10° NNW 03:04:42 71° NE 03:12:04 10° SE
NOSS 3-4 (C) 4.0 02:57:50 10° NNW 03:04:50 71° NE 03:12:14 10° SE
CBERS 1 LM4 rocket 4.3 03:05:12 10° NNE 03:09:59 81° WNW 03:11:16 50° SSW
Cosmos 1891 Rocket 4.3 03:09:49 38° SSW 03:12:18 83° W 03:18:26 10° N
Cosmos 841 Rocket 4.4 03:09:50 26° SSE 03:12:19 43° ESE 03:17:18 10° NNE
Cosmos 220 Rocket 3.9 03:09:32 10° NNW 03:13:50 60° WSW 03:14:06 59° SW
Cosmos 2278 4.0 03:12:02 39° WSW 03:13:51 56° WNW 03:19:27 10° NNE
Geosat 4.1 03:09:24 10° NNE 03:14:23 67° WNW 03:15:57 43° SW
Cosmos 2369 3.8 03:13:13 41° SW 03:15:04 62° WNW 03:20:43 10° NNE
Cosmos 1937 Rocket 3.4 03:09:57 10° NNW 03:15:09 89° ENE 03:18:26 23° SSE
Cosmos 1076 Rocket 4.4 03:11:59 10° N 03:16:11 46° ENE 03:19:12 17° SSE
Cosmos 2297 Rocket 2.1 03:12:21 10° NNW 03:17:59 73° WSW 03:21:33 23° SSE
Cosmos 1763 Rocket 3.9 03:16:50 30° S 03:19:13 56° ESE 03:24:18 10° NNE
Resurs 1-4 Rocket 2.7 03:14:17 10° NNE 03:19:26 53° E 03:22:30 23° SSE
AQUA 4.3 03:15:44 10° N 03:20:16 45° WNW 03:21:22 38° WSW
USA 161 2.0 03:21:36 53° NNW 03:21:36 53° NNW 03:23:52 10° NNW
NPP 4.3 03:17:43 10° N 03:22:44 41° WNW 03:24:27 32° WSW
ADEOS 3.6 03:18:46 10° N 03:23:58 68° WNW 03:25:56 38° SW
Okean O Rocket 3.9 03:21:41 10° NE 03:24:55 20° E 03:28:09 10° SE
Cosmos 2034 Rocket 4.0 03:23:22 34° SSW 03:26:13 68° W 03:32:25 10° N
Cosmos 405 Rocket 3.3 03:22:48 10° NNW 03:26:38 41° W 03:26:38 41° W
ARIANE 5 R/B 2.5 03:22:09 10° NNE 03:27:19 82° ESE 03:29:52 31° S
SL-16 R/B 2.5 03:24:58 12° SSE 03:30:44 89° E 03:36:57 10° NNW
Cosmos 1766 3.3 03:30:17 41° S 03:31:36 79° E 03:35:33 10° N
ERS-1 4.5 03:28:38 10° N 03:33:41 68° WNW 03:35:49 34° SW
SL-16 R/B 4.5 03:32:45 10° SE 03:36:25 18° E 03:40:06 10° ENE
Milstar 3 Cent rocket 3.5 03:36:28 22° S 03:37:21 22° SSE 03:42:48 10° ESE
Nadezhda 4 Rocket 3.9 03:31:12 10° N 03:37:24 79° W 03:42:21 17° S
Cosmos 1378 3.1 03:35:30 10° N 03:39:18 87° E 03:41:11 28° S
BREEZE-M DEB (TANK) 3.4 03:38:18 21° W 03:41:36 54° NNW 03:44:14 10° NE
Meteor 1-22 Rocket 4.4 03:38:27 27° SSW 03:41:58 76° W 03:48:08 10° N
Cosmos-2242 3.7 03:39:30 18° SSE 03:42:28 52° E 03:46:39 10° NNE
Meteor 1-24 Rocket 3.8 03:36:52 10° NNW 03:42:32 66° W 03:46:45 19° S
Spot 4 Rocket 4.4 03:37:53 10° N 03:42:54 51° WNW 03:45:14 29° SW
Cosmos 1408 Rocket 3.5 03:39:12 10° N 03:43:37 89° E 03:46:48 19° S
UNKNOWN OBJECT B 3.2 03:41:08 10° NNE 03:45:01 60° E 03:47:13 23° S
Cosmos 1766 Rocket 3.5 03:41:45 10° N 03:46:11 87° E 03:49:41 16° S
ERS-2 3.5 03:47:17 10° NNW 03:50:26 26° WNW 03:51:13 24° W
Cosmos 1758 3.7 03:49:05 19° S 03:51:48 62° E 03:55:46 10° NNE
IRS-1D 3.5 03:48:25 10° N 03:53:19 62° WNW 03:56:09 25° SW
OE (NEXTSAT) 4.4 03:53:26 34° WSW 03:54:54 84° NNW 03:58:33 10° ENE
CZ-4B R/B 4.4 03:51:54 10° NNE 03:57:03 38° E 04:02:05 10° SSE
EO 1 Del DPAF 3.2 03:54:44 22° S 03:57:05 64° WSW 04:00:57 10° NNW
Cosmos 1953 2.4 03:54:24 20° S 03:57:06 75° E 04:01:11 10° NNE
SME Rocket 4.4 03:53:44 19° SSW 03:57:42 53° W 04:05:45 10° NNW
GPS 2-04 Rocket1 3.4 03:57:57 29° SSW 03:58:49 33° S 04:02:18 10° ESE
MOS 1-B 4.3 03:53:27 10° NNE 03:59:18 89° WNW 04:03:59 16° SSW
ISS -3.5 03:58:44 10° WNW 04:01:59 79° SW 04:05:14 10° SE
Cosmos 1441 Rocket 3.4 03:59:01 10° NNW 04:02:56 56° W 04:05:35 19° S
EP 1 4.0 04:02:33 49° SW 04:03:05 78° NW 04:05:43 10° NNE
Cosmos 1805 3.3 04:01:09 19° S 04:03:56 80° E 04:07:52 10° N
Cosmos 1656 4.3 04:03:16 21° WSW 04:06:41 43° WNW 04:12:05 10° NNE
Cosmos 1707 4.5 04:04:33 10° NW 04:07:05 17° W 04:07:17 17° W
Cosmos 1842 Rocket 4.5 04:03:35 10° SSE 04:07:54 49° E 04:12:14 10° NNE
Cosmos 2026 Rocket 4.2 04:02:10 10° N 04:08:32 75° E 04:14:47 10° SSE
UNK 4.3 04:09:14 19° SSW 04:12:11 39° W 04:16:35 10° NNW
Cosmos 1634 Rocket 4.0 04:07:47 13° SSW 04:13:28 76° W 04:19:47 10° N
CZ-2D R/B 2.5 04:11:15 10° N 04:16:32 50° WNW 04:20:34 16° SW
Meteor 1-21 Rocket 4.3 04:13:20 10° NNW 04:19:17 83° W 04:25:12 10° S
Cosmos 2195 Rocket 4.4 04:13:19 10° N 04:19:27 80° W 04:25:33 10° S
USA 81 4.1 04:16:29 10° S 04:21:46 86° E 04:27:05 10° N
CZ-2D R/B 3.6 04:18:17 10° N 04:22:36 67° WNW 04:26:28 13° SSW
ATLAS CENTAUR R/B 3.1 04:19:27 14° WSW 04:23:01 30° NW 04:27:24 10° NNE
Cosmos 1092 Rocket 4.4 04:20:23 10° NNW 04:26:18 45° W 04:32:14 10° SSW
In-Cosmos 22 4.2 04:21:48 10° NNW 04:26:57 55° W 04:32:07 10° S
Cosmos 1697 Rocket 3.4 04:24:08 16° WSW 04:28:17 39° WNW 04:33:36 10° N
IRS-1C Rocket 4.1 04:23:01 10° NNE 04:28:18 84° WNW 04:33:33 10° SSW
RESURS DK-1 3.0 04:25:39 10° NNW 04:29:46 61° ENE 04:33:50 10° SE
ADEOS II 3.9 04:25:57 10° NE 04:30:31 30° E 04:35:04 10° SSE
UNK 4.3 04:28:17 10° NW 04:30:42 21° N 04:32:27 10° ENE
CZ-2C R/B 3.7 04:26:06 10° S 04:30:48 74° WSW 04:35:26 10° NNW
Cosmos 1461 3.1 04:30:25 10° NNW 04:34:34 74° NE 04:38:32 10° SE
Cosmos 1544 3.0 04:31:10 10° SSW 04:34:46 70° W 04:38:26 10° N
CZ-4B DEB 4.4 04:30:23 10° NNE 04:35:58 77° ESE 04:41:29 10° S
Cosmos 1980 Rocket 2.5 04:31:22 14° SW 04:36:10 54° WNW 04:41:44 10° NNE
Cosmos 2360 Rocket 4.4 04:32:54 10° SSE 04:37:06 22° E 04:41:19 10° NE
GEOS 3 Rocket 4.4 04:37:15 10° S 04:41:44 29° WSW 04:46:12 10° WNW
Cosmos 372 Rocket 3.9 04:37:50 10° NNW 04:42:58 84° WSW 04:48:03 10° SSE
Cosmos 1674 2.6 04:42:16 10° NNW 04:46:02 75° W 04:49:46 10° S
ARGOS Delta rocket 4.0 04:41:00 10° N 04:46:11 88° WNW 04:51:02 10° SSW
Cosmos 2322 Rocket 2.4 04:41:38 10° SSW 04:47:14 76° ESE 04:52:52 10° NNE
Abrixas 2.4 04:47:03 10° WNW 04:50:06 66° SSW 04:53:08 10° SE
Cosmos 1125 Rocket 3.9 04:45:19 10° NNW 04:50:13 42° WSW 04:55:04 10° S
Cosmos 1428 Rocket 4.4 04:48:02 10° N 04:54:11 76° W 05:00:15 10° S
Cosmos 1500 Rocket 3.9 04:50:02 10° NNW 04:54:16 47° W 04:58:26 10° SSW
Cosmos 2151 3.2 04:50:10 10° N 04:54:31 81° E 04:58:49 10° S
CZ-3 Stage 3 4.4 04:22:31 10° W 04:54:42 44° SSW 05:01:01 10° SE
ADEOS Rocket 4.0 04:51:20 10° NNE 04:57:43 56° E 05:04:45 10° S
Resurs 1-4 Rocket 3.6 04:55:02 10° NNW 04:58:52 21° WNW 05:02:43 10° WSW
Cosmos 1470 3.0 04:55:45 10° SSW 04:59:36 54° W 05:03:31 10° N
CZ-4B R/B 3.0 04:55:48 10° N 04:59:42 55° WNW 05:03:23 10° SSW
Okean O Rocket 2.3 04:57:21 10° N 05:01:25 38° WNW 05:05:29 10° SW
GRACE-1 3.9 05:00:23 10° S 05:03:14 77° W 05:06:08 10° N
GRACE-2 3.9 05:00:48 10° S 05:03:41 77° W 05:06:34 10° N
MOZ.5/SAFIR/RUBIN 5/SL-8 4.3 04:59:55 10° SSW 05:04:18 38° W 05:08:41 10° NNW
Cosmos 1437 4.4 05:01:57 10° NW 05:04:22 19° W 05:06:46 10° SW
ARIANE 5 R/B 4.5 05:03:17 10° NNW 05:05:45 14° WNW 05:08:14 10° W
